"datetime","temp","dp","rain_mm","uv","mb"
"2024-03-06 00:00:00",1.9,0.9,0.0,0.0,1017.0
"2024-03-06 00:01:00",1.9,0.9,0.0,0.0,1017.1
"2024-03-06 00:02:00",1.9,0.9,0.0,0.0,1017.0
"2024-03-06 00:03:00",1.9,0.9,0.0,0.0,1017.0
"2024-03-06 00:04:00",1.9,0.9,0.0,0.0,1017.1
"2024-03-06 00:05:00",1.9,0.9,0.0,0.0,1017.1
"2024-03-06 00:06:00",1.9,0.9,0.0,0.0,1017.1
"2024-03-06 00:07:00",1.9,0.9,0.0,0.0,1017.1
"2024-03-06 00:08:00",1.9,0.9,0.0,0.0,1017.1
"2024-03-06 00:09:00",1.9,0.9,0.0,0.0,1017.1
"2024-03-06 00:10:00",1.9,0.9,0.0,0.0,1017.1
"2024-03-06 00:11:00",1.9,0.9,0.0,0.0,1017.1
"2024-03-06 00:12:00",1.9,0.9,0.0,0.0,1017.1
"2024-03-06 00:13:00",1.8,0.8,0.0,0.0,1017.1
"2024-03-06 00:14:00",1.8,0.8,0.0,0.0,1017.1
"2024-03-06 00:15:00",1.8,0.8,0.0,0.0,1017.1
"2024-03-06 00:16:00",1.8,0.8,0.0,0.0,1017.1
"2024-03-06 00:17:00",1.8,0.8,0.0,0.0,1017.2
"2024-03-06 00:18:00",1.8,0.8,0.0,0.0,1017.2
"2024-03-06 00:19:00",1.8,0.8,0.0,0.0,1017.2
"2024-03-06 00:20:00",1.8,0.8,0.0,0.0,1017.2
"2024-03-06 00:21:00",1.8,0.8,0.0,0.0,1017.2
"2024-03-06 00:22:00",1.8,0.8,0.0,0.0,1017.1
"2024-03-06 00:23:00",1.8,0.8,0.0,0.0,1017.2
"2024-03-06 00:24:00",1.7,0.7,0.0,0.0,1017.2
"2024-03-06 00:25:00",1.7,0.7,0.0,0.0,1017.1
"2024-03-06 00:26:00",1.7,0.7,0.0,0.0,1017.1
"2024-03-06 00:27:00",1.7,0.7,0.0,0.0,1017.2
"2024-03-06 00:28:00",1.7,0.7,0.0,0.0,1017.2
"2024-03-06 00:29:00",1.7,0.7,0.0,0.0,1017.2
"2024-03-06 00:30:00",1.7,0.7,0.0,0.0,1017.1
"2024-03-06 00:31:00",1.7,0.7,0.0,0.0,1017.2
"2024-03-06 00:32:00",1.7,0.7,0.0,0.0,1017.2
"2024-03-06 00:33:00",1.7,0.7,0.0,0.0,1017.2
"2024-03-06 00:34:00",1.7,0.7,0.0,0.0,1017.2
"2024-03-06 00:35:00",1.7,0.7,0.0,0.0,1017.3
"2024-03-06 00:36:00",1.6,0.6,0.0,0.0,1017.3
"2024-03-06 00:37:00",1.7,0.7,0.0,0.0,1017.2
"2024-03-06 00:38:00",1.6,0.6,0.0,0.0,1017.2
"2024-03-06 00:39:00",1.6,0.6,0.0,0.0,1017.3
"2024-03-06 00:40:00",1.6,0.6,0.0,0.0,1017.3
"2024-03-06 00:41:00",1.6,0.6,0.0,0.0,1017.3
"2024-03-06 00:42:00",1.6,0.6,0.0,0.0,1017.3
"2024-03-06 00:43:00",1.6,0.6,0.0,0.0,1017.3
"2024-03-06 00:44:00",1.6,0.6,0.0,0.0,1017.3
"2024-03-06 00:45:00",1.6,0.6,0.0,0.0,1017.3
"2024-03-06 00:46:00",1.6,0.6,0.0,0.0,1017.3
"2024-03-06 00:47:00",1.6,0.6,0.0,0.0,1017.3
"2024-03-06 00:48:00",1.5,0.5,0.0,0.0,1017.4
"2024-03-06 00:49:00",1.5,0.5,0.0,0.0,1017.3
"2024-03-06 00:50:00",1.5,0.5,0.0,0.0,1017.3
"2024-03-06 00:51:00",1.5,0.5,0.0,0.0,1017.4
"2024-03-06 00:52:00",1.4,0.4,0.0,0.0,1017.4
"2024-03-06 00:53:00",1.5,0.5,0.0,0.0,1017.4
"2024-03-06 00:54:00",1.4,0.4,0.0,0.0,1017.4
"2024-03-06 00:55:00",1.4,0.4,0.0,0.0,1017.4
"2024-03-06 00:56:00",1.4,0.4,0.0,0.0,1017.4
"2024-03-06 00:57:00",1.4,0.4,0.0,0.0,1017.3
"2024-03-06 00:58:00",1.4,0.4,0.0,0.0,1017.3
"2024-03-06 00:59:00",1.3,0.3,0.0,0.0,1017.3
"2024-03-06 01:00:00",1.4,0.4,0.0,0.0,1017.3
"2024-03-06 01:01:00",1.4,0.4,0.0,0.0,1017.3
"2024-03-06 01:02:00",1.4,0.4,0.0,0.0,1017.3
"2024-03-06 01:03:00",1.3,0.3,0.0,0.0,1017.4
"2024-03-06 01:04:00",1.3,0.3,0.0,0.0,1017.4
"2024-03-06 01:05:00",1.3,0.3,0.0,0.0,1017.4
"2024-03-06 01:06:00",1.3,0.3,0.0,0.0,1017.4
"2024-03-06 01:07:00",1.3,0.3,0.0,0.0,1017.4
"2024-03-06 01:08:00",1.3,0.3,0.0,0.0,1017.4
"2024-03-06 01:09:00",1.3,0.3,0.0,0.0,1017.4
"2024-03-06 01:10:00",1.3,0.3,0.0,0.0,1017.4
"2024-03-06 01:11:00",1.3,0.3,0.0,0.0,1017.4
"2024-03-06 01:12:00",1.3,0.3,0.0,0.0,1017.4
"2024-03-06 01:13:00",1.3,0.3,0.0,0.0,1017.4
"2024-03-06 01:14:00",1.3,0.3,0.0,0.0,1017.4
"2024-03-06 01:15:00",1.2,0.2,0.0,0.0,1017.3
"2024-03-06 01:16:00",1.2,0.2,0.0,0.0,1017.4
"2024-03-06 01:17:00",1.2,0.2,0.0,0.0,1017.3
"2024-03-06 01:18:00",1.3,0.3,0.0,0.0,1017.3
"2024-03-06 01:19:00",1.2,0.2,0.0,0.0,1017.3
"2024-03-06 01:20:00",1.2,0.2,0.0,0.0,1017.4
"2024-03-06 01:21:00",1.2,0.2,0.0,0.0,1017.4
"2024-03-06 01:22:00",1.2,0.2,0.0,0.0,1017.3
"2024-03-06 01:23:00",1.2,0.2,0.0,0.0,1017.4
"2024-03-06 01:24:00",1.2,0.2,0.0,0.0,1017.4
"2024-03-06 01:25:00",1.2,0.2,0.0,0.0,1017.4
"2024-03-06 01:26:00",1.2,0.2,0.0,0.0,1017.4
"2024-03-06 01:27:00",1.2,0.2,0.0,0.0,1017.4
"2024-03-06 01:28:00",1.2,0.2,0.0,0.0,1017.4
"2024-03-06 01:29:00",1.1,0.1,0.0,0.0,1017.4
"2024-03-06 01:30:00",1.1,0.1,0.0,0.0,1017.5
"2024-03-06 01:31:00",1.1,0.1,0.0,0.0,1017.4
"2024-03-06 01:32:00",1.1,0.1,0.0,0.0,1017.4
"2024-03-06 01:33:00",1.1,0.1,0.0,0.0,1017.4
"2024-03-06 01:34:00",1.1,0.1,0.0,0.0,1017.4
"2024-03-06 01:35:00",1.1,0.1,0.0,0.0,1017.4
"2024-03-06 01:36:00",1.1,0.1,0.0,0.0,1017.4
"2024-03-06 01:37:00",1.1,0.1,0.0,0.0,1017.4
"2024-03-06 01:38:00",1.1,0.1,0.0,0.0,1017.3
"2024-03-06 01:39:00",1.0,0.0,0.0,0.0,1017.4
"2024-03-06 01:40:00",0.9,"-0.1",0.0,0.0,1017.4
"2024-03-06 01:41:00",0.9,"-0.1",0.0,0.0,1017.3
"2024-03-06 01:42:00",0.9,"-0.1",0.0,0.0,1017.3
"2024-03-06 01:43:00",0.9,"-0.1",0.0,0.0,1017.3
"2024-03-06 01:44:00",0.9,"-0.1",0.0,0.0,1017.3
"2024-03-06 01:45:00",0.9,"-0.1",0.0,0.0,1017.3
"2024-03-06 01:46:00",0.9,"-0.1",0.0,0.0,1017.3
"2024-03-06 01:47:00",0.9,"-0.1",0.0,0.0,1017.3
"2024-03-06 01:48:00",0.9,"-0.1",0.0,0.0,1017.3
"2024-03-06 01:49:00",0.9,"-0.1",0.0,0.0,1017.3
"2024-03-06 01:50:00",0.9,"-0.1",0.0,0.0,1017.3
"2024-03-06 01:51:00",0.9,"-0.1",0.0,0.0,1017.3
"2024-03-06 01:52:00",0.9,"-0.1",0.0,0.0,1017.3
"2024-03-06 01:53:00",0.9,"-0.1",0.0,0.0,1017.3
"2024-03-06 01:54:00",0.8,"-0.2",0.0,0.0,1017.3
"2024-03-06 01:55:00",0.8,"-0.2",0.0,0.0,1017.3
"2024-03-06 01:56:00",0.8,"-0.2",0.0,0.0,1017.3
"2024-03-06 01:57:00",0.8,"-0.2",0.0,0.0,1017.3
"2024-03-06 01:58:00",0.8,"-0.2",0.0,0.0,1017.4
"2024-03-06 01:59:00",0.8,"-0.2",0.0,0.0,1017.3
"2024-03-06 02:00:00",0.8,"-0.2",0.0,0.0,1017.3
"2024-03-06 02:01:00",0.8,"-0.2",0.0,0.0,1017.3
"2024-03-06 02:02:00",0.7,"-0.3",0.0,0.0,1017.3
"2024-03-06 02:03:00",0.7,"-0.3",0.0,0.0,1017.4
"2024-03-06 02:04:00",0.8,"-0.2",0.0,0.0,1017.4
"2024-03-06 02:05:00",0.7,"-0.3",0.0,0.0,1017.4
"2024-03-06 02:06:00",0.7,"-0.3",0.0,0.0,1017.4
"2024-03-06 02:07:00",0.7,"-0.3",0.0,0.0,1017.4
"2024-03-06 02:08:00",0.7,"-0.3",0.0,0.0,1017.4
"2024-03-06 02:09:00",0.7,"-0.3",0.0,0.0,1017.4
"2024-03-06 02:10:00",0.7,"-0.3",0.0,0.0,1017.4
"2024-03-06 02:11:00",0.7,"-0.3",0.0,0.0,1017.4
"2024-03-06 02:12:00",0.7,"-0.3",0.0,0.0,1017.4
"2024-03-06 02:13:00",0.7,"-0.3",0.0,0.0,1017.4
"2024-03-06 02:14:00",0.7,"-0.3",0.0,0.0,1017.4
"2024-03-06 02:15:00",0.7,"-0.3",0.0,0.0,1017.4
"2024-03-06 02:16:00",0.7,"-0.3",0.0,0.0,1017.4
"2024-03-06 02:17:00",0.7,"-0.3",0.0,0.0,1017.4
"2024-03-06 02:18:00",0.7,"-0.3",0.0,0.0,1017.5
"2024-03-06 02:19:00",0.7,"-0.3",0.0,0.0,1017.5
"2024-03-06 02:20:00",0.7,"-0.3",0.0,0.0,1017.4
"2024-03-06 02:21:00",0.7,"-0.3",0.0,0.0,1017.4
"2024-03-06 02:22:00",0.7,"-0.3",0.0,0.0,1017.5
"2024-03-06 02:23:00",0.6,"-0.4",0.0,0.0,1017.4
"2024-03-06 02:24:00",0.6,"-0.4",0.0,0.0,1017.4
"2024-03-06 02:25:00",0.6,"-0.4",0.0,0.0,1017.4
"2024-03-06 02:26:00",0.6,"-0.4",0.0,0.0,1017.4
"2024-03-06 02:27:00",0.6,"-0.4",0.0,0.0,1017.5
"2024-03-06 02:28:00",0.6,"-0.4",0.0,0.0,1017.4
"2024-03-06 02:29:00",0.6,"-0.4",0.0,0.0,1017.4
"2024-03-06 02:30:00",0.6,"-0.4",0.0,0.0,1017.4
"2024-03-06 02:31:00",0.6,"-0.4",0.0,0.0,1017.4
"2024-03-06 02:32:00",0.6,"-0.4",0.0,0.0,1017.4
"2024-03-06 02:33:00",0.6,"-0.4",0.0,0.0,1017.4
"2024-03-06 02:34:00",0.5,"-0.5",0.0,0.0,1017.4
"2024-03-06 02:35:00",0.5,"-0.5",0.0,0.0,1017.4
"2024-03-06 02:36:00",0.5,"-0.5",0.0,0.0,1017.4
"2024-03-06 02:37:00",0.5,"-0.5",0.0,0.0,1017.4
"2024-03-06 02:38:00",0.5,"-0.5",0.0,0.0,1017.4
"2024-03-06 02:39:00",0.5,"-0.4",0.0,0.0,1017.4
"2024-03-06 02:40:00",0.5,"-0.5",0.0,0.0,1017.4
"2024-03-06 02:41:00",0.5,"-0.5",0.0,0.0,1017.4
"2024-03-06 02:42:00",0.5,"-0.5",0.0,0.0,1017.4
"2024-03-06 02:43:00",0.5,"-0.5",0.0,0.0,1017.5
"2024-03-06 02:44:00",0.4,"-0.6",0.0,0.0,1017.4
"2024-03-06 02:45:00",0.4,"-0.6",0.0,0.0,1017.4
"2024-03-06 02:46:00",0.4,"-0.6",0.0,0.0,1017.5
"2024-03-06 02:47:00",0.4,"-0.6",0.0,0.0,1017.4
"2024-03-06 02:48:00",0.4,"-0.6",0.0,0.0,1017.4
"2024-03-06 02:49:00",0.4,"-0.6",0.0,0.0,1017.4
"2024-03-06 02:50:00",0.4,"-0.6",0.0,0.0,1017.4
"2024-03-06 02:51:00",0.4,"-0.6",0.0,0.0,1017.4
"2024-03-06 02:52:00",0.4,"-0.6",0.0,0.0,1017.4
"2024-03-06 02:53:00",0.4,"-0.6",0.0,0.0,1017.4
"2024-03-06 02:54:00",0.4,"-0.6",0.0,0.0,1017.4
"2024-03-06 02:55:00",0.4,"-0.6",0.0,0.0,1017.4
"2024-03-06 02:56:00",0.4,"-0.6",0.0,0.0,1017.4
"2024-03-06 02:57:00",0.4,"-0.6",0.0,0.0,1017.4
"2024-03-06 02:58:00",0.4,"-0.6",0.0,0.0,1017.4
"2024-03-06 02:59:00",0.4,"-0.6",0.0,0.0,1017.4
"2024-03-06 03:00:00",0.4,"-0.6",0.0,0.0,1017.4
"2024-03-06 03:01:00",0.4,"-0.6",0.0,0.0,1017.3
"2024-03-06 03:02:00",0.4,"-0.6",0.0,0.0,1017.3
"2024-03-06 03:03:00",0.4,"-0.6",0.0,0.0,1017.3
"2024-03-06 03:04:00",0.3,"-0.7",0.0,0.0,1017.3
"2024-03-06 03:05:00",0.4,"-0.6",0.0,0.0,1017.3
"2024-03-06 03:06:00",0.3,"-0.7",0.0,0.0,1017.3
"2024-03-06 03:07:00",0.4,"-0.6",0.0,0.0,1017.3
"2024-03-06 03:08:00",0.3,"-0.6",0.0,0.0,1017.2
"2024-03-06 03:09:00",0.4,"-0.5",0.0,0.0,1017.2
"2024-03-06 03:10:00",0.3,"-0.6",0.0,0.0,1017.3
"2024-03-06 03:11:00",0.3,"-0.6",0.0,0.0,1017.2
"2024-03-06 03:12:00",0.3,"-0.6",0.0,0.0,1017.3
"2024-03-06 03:13:00",0.3,"-0.6",0.0,0.0,1017.3
"2024-03-06 03:14:00",0.3,"-0.6",0.0,0.0,1017.3
"2024-03-06 03:15:00",0.3,"-0.6",0.0,0.0,1017.3
"2024-03-06 03:16:00",0.3,"-0.6",0.0,0.0,1017.3
"2024-03-06 03:17:00",0.3,"-0.6",0.0,0.0,1017.3
"2024-03-06 03:18:00",0.3,"-0.6",0.0,0.0,1017.3
"2024-03-06 03:19:00",0.3,"-0.6",0.0,0.0,1017.3
"2024-03-06 03:20:00",0.3,"-0.6",0.0,0.0,1017.3
"2024-03-06 03:21:00",0.3,"-0.6",0.0,0.0,1017.3
"2024-03-06 03:22:00",0.3,"-0.6",0.0,0.0,1017.3
"2024-03-06 03:23:00",0.2,"-0.7",0.0,0.0,1017.4
"2024-03-06 03:24:00",0.3,"-0.6",0.0,0.0,1017.4
"2024-03-06 03:25:00",0.3,"-0.6",0.0,0.0,1017.4
"2024-03-06 03:26:00",0.3,"-0.6",0.0,0.0,1017.4
"2024-03-06 03:27:00",0.3,"-0.6",0.0,0.0,1017.3
"2024-03-06 03:28:00",0.2,"-0.7",0.0,0.0,1017.4
"2024-03-06 03:29:00",0.3,"-0.7",0.0,0.0,1017.3
"2024-03-06 03:30:00",0.3,"-0.7",0.0,0.0,1017.3
"2024-03-06 03:31:00",0.3,"-0.7",0.0,0.0,1017.3
"2024-03-06 03:32:00",0.3,"-0.7",0.0,0.0,1017.3
"2024-03-06 03:33:00",0.2,"-0.7",0.0,0.0,1017.3
"2024-03-06 03:34:00",0.2,"-0.8",0.0,0.0,1017.3
"2024-03-06 03:35:00",0.2,"-0.8",0.0,0.0,1017.3
"2024-03-06 03:36:00",0.2,"-0.8",0.0,0.0,1017.3
"2024-03-06 03:37:00",0.2,"-0.8",0.0,0.0,1017.3
"2024-03-06 03:38:00",0.2,"-0.8",0.0,0.0,1017.3
"2024-03-06 03:39:00",0.2,"-0.8",0.0,0.0,1017.3
"2024-03-06 03:40:00",0.2,"-0.8",0.0,0.0,1017.3
"2024-03-06 03:41:00",0.2,"-0.8",0.0,0.0,1017.3
"2024-03-06 03:42:00",0.2,"-0.8",0.0,0.0,1017.3
"2024-03-06 03:43:00",0.2,"-0.8",0.0,0.0,1017.3
"2024-03-06 03:44:00",0.2,"-0.8",0.0,0.0,1017.3
"2024-03-06 03:45:00",0.2,"-0.8",0.0,0.0,1017.3
"2024-03-06 03:46:00",0.2,"-0.8",0.0,0.0,1017.3
"2024-03-06 03:47:00",0.2,"-0.7",0.0,0.0,1017.2
"2024-03-06 03:48:00",0.2,"-0.8",0.0,0.0,1017.3
"2024-03-06 03:49:00",0.2,"-0.8",0.0,0.0,1017.3
"2024-03-06 03:50:00",0.2,"-0.8",0.0,0.0,1017.3
"2024-03-06 03:51:00",0.2,"-0.7",0.0,0.0,1017.3
"2024-03-06 03:52:00",0.2,"-0.8",0.0,0.0,1017.3
"2024-03-06 03:53:00",0.2,"-0.8",0.0,0.0,1017.2
"2024-03-06 03:54:00",0.2,"-0.7",0.0,0.0,1017.3
"2024-03-06 03:55:00",0.2,"-0.7",0.0,0.0,1017.2
"2024-03-06 03:56:00",0.2,"-0.8",0.0,0.0,1017.3
"2024-03-06 03:57:00",0.2,"-0.7",0.0,0.0,1017.3
"2024-03-06 03:58:00",0.2,"-0.7",0.0,0.0,1017.3
"2024-03-06 03:59:00",0.2,"-0.7",0.0,0.0,1017.3
"2024-03-06 04:00:00",0.2,"-0.7",0.0,0.0,1017.3
"2024-03-06 04:01:00",0.2,"-0.7",0.0,0.0,1017.4
"2024-03-06 04:02:00",0.2,"-0.7",0.0,0.0,1017.3
"2024-03-06 04:03:00",0.2,"-0.7",0.0,0.0,1017.3
"2024-03-06 04:04:00",0.2,"-0.7",0.0,0.0,1017.3
"2024-03-06 04:05:00",0.2,"-0.7",0.0,0.0,1017.4
"2024-03-06 04:06:00",0.2,"-0.7",0.0,0.0,1017.3
"2024-03-06 04:07:00",0.1,"-0.8",0.0,0.0,1017.3
"2024-03-06 04:08:00",0.2,"-0.7",0.0,0.0,1017.3
"2024-03-06 04:09:00",0.1,"-0.8",0.0,0.0,1017.3
"2024-03-06 04:10:00",0.1,"-0.8",0.0,0.0,1017.4
"2024-03-06 04:11:00",0.1,"-0.8",0.0,0.0,1017.4
"2024-03-06 04:12:00",0.1,"-0.8",0.0,0.0,1017.4
"2024-03-06 04:13:00",0.1,"-0.8",0.0,0.0,1017.4
"2024-03-06 04:14:00",0.1,"-0.8",0.0,0.0,1017.4
"2024-03-06 04:15:00",0.1,"-0.8",0.0,0.0,1017.4
"2024-03-06 04:16:00",0.1,"-0.8",0.0,0.0,1017.4
"2024-03-06 04:17:00",0.1,"-0.8",0.0,0.0,1017.4
"2024-03-06 04:18:00",0.1,"-0.8",0.0,0.0,1017.4
"2024-03-06 04:19:00",0.1,"-0.8",0.0,0.0,1017.4
"2024-03-06 04:20:00",0.1,"-0.8",0.0,0.0,1017.4
"2024-03-06 04:21:00",0.1,"-0.8",0.0,0.0,1017.4
"2024-03-06 04:22:00",0.1,"-0.8",0.0,0.0,1017.4
"2024-03-06 04:23:00",0.1,"-0.8",0.0,0.0,1017.4
"2024-03-06 04:24:00",0.1,"-0.8",0.0,0.0,1017.4
"2024-03-06 04:25:00",0.1,"-0.8",0.0,0.0,1017.5
"2024-03-06 04:26:00",0.1,"-0.8",0.0,0.0,1017.4
"2024-03-06 04:27:00",0.1,"-0.8",0.0,0.0,1017.4
"2024-03-06 04:28:00",0.1,"-0.8",0.0,0.0,1017.4
"2024-03-06 04:29:00",0.1,"-0.8",0.0,0.0,1017.4
"2024-03-06 04:30:00",0.1,"-0.8",0.0,0.0,1017.4
"2024-03-06 04:31:00",0.1,"-0.8",0.0,0.0,1017.4
"2024-03-06 07:49:00",1.0,0.3,0.2,0.0,1018.9
"2024-03-06 07:50:00",1.1,0.4,0.2,0.0,1019.0
"2024-03-06 07:51:00",1.1,0.4,0.2,0.0,1019.0
"2024-03-06 07:52:00",1.1,0.4,0.2,0.0,1019.0
"2024-03-06 07:53:00",1.2,0.5,0.2,0.0,1019.0
"2024-03-06 07:54:00",1.2,0.5,0.2,0.0,1019.0
"2024-03-06 07:55:00",1.2,0.5,0.2,0.0,1019.1
"2024-03-06 07:56:00",1.3,0.6,0.2,0.0,1019.0
"2024-03-06 07:57:00",1.3,0.6,0.2,0.0,1019.0
"2024-03-06 07:58:00",1.3,0.6,0.2,0.0,1019.0
"2024-03-06 07:59:00",1.3,0.6,0.2,0.0,1019.1
"2024-03-06 08:00:00",1.3,0.6,0.2,0.0,1019.1
"2024-03-06 08:01:00",1.4,0.7,0.2,0.0,1019.1
"2024-03-06 08:02:00",1.4,0.7,0.2,0.0,1019.1
"2024-03-06 08:03:00",1.5,0.8,0.2,0.0,1019.2
"2024-03-06 08:04:00",1.6,1.0,0.2,0.0,1019.1
"2024-03-06 08:05:00",1.8,1.1,0.2,0.0,1019.1
"2024-03-06 08:06:00",1.9,1.3,0.2,0.0,1019.1
"2024-03-06 08:07:00",2.1,1.5,0.2,0.0,1019.1
"2024-03-06 08:08:00",2.2,1.6,0.2,0.0,1019.1
"2024-03-06 08:09:00",2.3,1.6,0.2,0.0,1019.2
"2024-03-06 08:10:00",2.3,1.7,0.2,0.0,1019.1
"2024-03-06 08:11:00",2.4,1.8,0.2,0.0,1019.2
"2024-03-06 08:12:00",2.4,1.7,0.2,0.0,1019.2
"2024-03-06 08:13:00",2.4,1.7,0.2,0.0,1019.2
"2024-03-06 08:14:00",2.4,1.8,0.2,0.0,1019.2
"2024-03-06 08:15:00",2.4,1.7,0.2,0.0,1019.2
"2024-03-06 08:16:00",2.5,1.9,0.2,0.0,1019.2
"2024-03-06 08:17:00",2.5,1.8,0.2,0.0,1019.2
"2024-03-06 08:18:00",2.5,1.9,0.2,0.0,1019.2
"2024-03-06 08:19:00",2.6,2.0,0.2,0.0,1019.2
"2024-03-06 08:20:00",2.6,2.0,0.2,0.0,1019.2
"2024-03-06 08:21:00",2.6,2.0,0.2,0.0,1019.2
"2024-03-06 08:22:00",2.6,2.0,0.2,0.0,1019.2
"2024-03-06 08:23:00",2.7,2.1,0.2,0.0,1019.2
"2024-03-06 08:24:00",2.7,2.0,0.2,0.0,1019.2
"2024-03-06 08:25:00",2.7,2.1,0.2,0.0,1019.2
"2024-03-06 08:26:00",2.7,2.1,0.2,0.0,1019.2
"2024-03-06 08:27:00",2.7,2.1,0.2,0.0,1019.3
"2024-03-06 08:28:00",2.7,2.1,0.2,0.0,1019.2
"2024-03-06 08:29:00",2.8,2.2,0.2,0.0,1019.3
"2024-03-06 08:30:00",2.8,2.2,0.2,0.0,1019.3
"2024-03-06 08:31:00",2.8,2.2,0.2,0.0,1019.3
"2024-03-06 08:32:00",2.9,2.3,0.2,0.0,1019.3
"2024-03-06 08:33:00",2.9,2.3,0.2,0.0,1019.3
"2024-03-06 08:34:00",3.1,2.5,0.2,0.0,1019.3
"2024-03-06 08:35:00",3.2,2.6,0.2,0.0,1019.3
"2024-03-06 08:36:00",3.2,2.6,0.2,0.0,1019.3
"2024-03-06 08:37:00",3.2,2.6,0.2,0.0,1019.3
"2024-03-06 08:38:00",3.2,2.6,0.2,0.0,1019.4
"2024-03-06 08:39:00",3.1,2.5,0.2,0.0,1019.4
"2024-03-06 08:40:00",3.1,2.5,0.2,0.0,1019.4
"2024-03-06 08:41:00",3.1,2.5,0.2,0.0,1019.4
"2024-03-06 08:42:00",3.1,2.5,0.2,0.0,1019.4
"2024-03-06 08:43:00",3.2,2.6,0.2,0.0,1019.4
"2024-03-06 08:44:00",3.2,2.6,0.2,0.0,1019.4
"2024-03-06 08:45:00",3.2,2.6,0.2,0.0,1019.4
"2024-03-06 08:46:00",3.2,2.6,0.2,0.0,1019.4
"2024-03-06 08:47:00",3.3,2.7,0.2,0.0,1019.4
"2024-03-06 08:48:00",3.3,2.7,0.2,0.0,1019.5
"2024-03-06 08:49:00",3.4,2.8,0.2,0.0,1019.4
"2024-03-06 08:50:00",3.5,2.9,0.2,0.0,1019.4
"2024-03-06 08:51:00",3.5,2.9,0.2,0.0,1019.4
"2024-03-06 08:52:00",3.4,2.8,0.2,0.0,1019.4
"2024-03-06 08:53:00",3.3,2.7,0.2,0.0,1019.5
"2024-03-06 08:54:00",3.3,2.7,0.2,0.0,1019.4
"2024-03-06 08:55:00",3.3,2.7,0.2,0.0,1019.4
"2024-03-06 08:56:00",3.3,2.7,0.2,0.0,1019.4
"2024-03-06 08:57:00",3.3,2.7,0.2,0.0,1019.4
"2024-03-06 08:58:00",3.4,2.8,0.2,0.0,1019.4
"2024-03-06 08:59:00",3.5,2.9,0.2,0.0,1019.4
"2024-03-06 09:00:00",3.6,3.0,0.2,0.0,1019.5
"2024-03-06 09:01:00",3.7,3.1,0.2,0.0,1019.5
"2024-03-06 09:02:00",3.7,3.1,0.2,0.0,1019.5
"2024-03-06 09:03:00",3.7,3.1,0.2,0.0,1019.5
"2024-03-06 09:04:00",3.7,3.1,0.2,0.0,1019.5
"2024-03-06 09:05:00",3.7,3.1,0.2,0.0,1019.5
"2024-03-06 09:06:00",3.6,3.0,0.2,0.0,1019.5
"2024-03-06 09:07:00",3.6,3.0,0.2,0.0,1019.5
"2024-03-06 09:08:00",3.7,3.1,0.2,0.0,1019.5
"2024-03-06 09:09:00",3.7,3.1,0.2,0.0,1019.5
"2024-03-06 09:10:00",3.7,3.1,0.2,0.0,1019.5
"2024-03-06 09:11:00",3.8,3.2,0.2,0.0,1019.5
"2024-03-06 09:12:00",3.7,3.1,0.2,0.0,1019.5
"2024-03-06 09:13:00",3.7,3.1,0.2,0.0,1019.6
"2024-03-06 09:14:00",3.8,3.2,0.2,0.0,1019.6
"2024-03-06 09:15:00",3.8,3.2,0.2,0.0,1019.6
"2024-03-06 09:16:00",3.8,3.2,0.2,0.0,1019.6
"2024-03-06 09:17:00",3.8,3.2,0.2,0.0,1019.7
"2024-03-06 09:18:00",3.8,3.2,0.2,0.0,1019.7
"2024-03-06 09:19:00",4.0,3.4,0.2,0.0,1019.7
"2024-03-06 09:20:00",4.1,3.5,0.2,0.0,1019.7
"2024-03-06 09:21:00",4.2,3.6,0.2,0.0,1019.6
"2024-03-06 09:22:00",4.2,3.6,0.2,0.0,1019.7
"2024-03-06 09:23:00",4.2,3.6,0.2,0.0,1019.7
"2024-03-06 09:24:00",4.2,3.6,0.2,0.0,1019.7
"2024-03-06 09:25:00",4.2,3.6,0.2,0.0,1019.7
"2024-03-06 09:26:00",4.2,3.6,0.2,0.5,1019.8
"2024-03-06 09:27:00",4.3,3.7,0.2,0.5,1019.8
"2024-03-06 09:28:00",4.3,3.7,0.2,0.5,1019.8
"2024-03-06 09:29:00",4.3,3.7,0.2,0.5,1019.8
"2024-03-06 09:30:00",4.2,3.6,0.2,0.5,1019.8
"2024-03-06 09:31:00",4.2,3.6,0.2,0.5,1019.7
"2024-03-06 09:32:00",4.2,3.6,0.2,0.5,1019.7
"2024-03-06 09:33:00",4.2,3.6,0.2,0.5,1019.7
"2024-03-06 09:34:00",4.2,3.6,0.2,0.5,1019.8
"2024-03-06 09:35:00",4.2,3.6,0.2,0.5,1019.8
"2024-03-06 09:36:00",4.3,3.7,0.2,0.5,1019.8
"2024-03-06 09:37:00",4.3,3.7,0.2,0.5,1019.8
"2024-03-06 09:38:00",4.3,3.7,0.2,0.5,1019.7
"2024-03-06 09:39:00",4.3,3.7,0.2,0.5,1019.8
"2024-03-06 09:40:00",4.4,3.8,0.2,0.5,1019.8
"2024-03-06 09:41:00",4.4,3.8,0.2,0.5,1019.8
"2024-03-06 09:42:00",4.4,3.8,0.2,0.5,1019.9
"2024-03-06 09:43:00",4.4,3.8,0.2,0.5,1019.9
"2024-03-06 09:44:00",4.4,3.8,0.2,0.5,1019.9
"2024-03-06 09:45:00",4.6,4.0,0.2,0.5,1019.9
"2024-03-06 09:46:00",4.7,4.1,0.2,0.6,1019.8
"2024-03-06 09:47:00",4.7,4.3,0.2,0.6,1019.9
"2024-03-06 09:48:00",4.6,4.0,0.2,0.6,1019.9
"2024-03-06 09:49:00",4.6,4.0,0.2,0.6,1019.8
"2024-03-06 09:50:00",4.6,4.0,0.2,0.6,1019.9
"2024-03-06 09:51:00",4.6,4.0,0.2,0.6,1019.9
"2024-03-06 09:52:00",4.7,4.1,0.2,0.6,1019.8
"2024-03-06 09:53:00",4.8,4.2,0.2,0.7,1019.9
"2024-03-06 09:54:00",4.8,4.4,0.2,0.7,1019.9
"2024-03-06 09:55:00",4.7,4.1,0.2,0.7,1019.9
"2024-03-06 09:56:00",4.7,4.1,0.2,0.7,1019.9
"2024-03-06 09:57:00",4.7,4.1,0.2,0.7,1019.9
"2024-03-06 09:58:00",4.7,4.1,0.2,0.7,1019.9
"2024-03-06 09:59:00",4.8,4.2,0.2,0.6,1019.9
"2024-03-06 10:00:00",4.8,4.2,0.2,0.6,1019.9
"2024-03-06 10:01:00",4.9,4.3,0.2,0.6,1019.9
"2024-03-06 10:02:00",4.8,4.2,0.2,0.6,1019.9
"2024-03-06 10:03:00",4.9,4.3,0.2,0.7,1019.9
"2024-03-06 10:04:00",4.9,4.3,0.2,0.7,1019.9
"2024-03-06 10:05:00",4.9,4.3,0.2,0.7,1019.9
"2024-03-06 10:06:00",4.9,4.3,0.2,0.7,1019.9
"2024-03-06 10:07:00",4.9,4.3,0.2,0.7,1019.9
"2024-03-06 10:08:00",5.1,4.7,0.2,0.7,1019.9
"2024-03-06 10:09:00",5.1,4.7,0.2,0.7,1019.9
"2024-03-06 10:10:00",5.1,4.7,0.2,0.7,1019.9
"2024-03-06 10:11:00",5.0,4.6,0.2,0.8,1019.9
"2024-03-06 10:12:00",4.9,4.3,0.2,0.8,1019.9
"2024-03-06 10:13:00",4.9,4.3,0.2,0.7,1019.9
"2024-03-06 10:14:00",4.9,4.3,0.2,0.7,1019.9
"2024-03-06 10:15:00",5.0,4.4,0.2,0.6,1019.9
"2024-03-06 10:16:00",5.1,4.7,0.2,0.6,1019.9
"2024-03-06 10:17:00",5.1,4.7,0.2,0.7,1019.9
"2024-03-06 10:18:00",5.2,4.8,0.2,0.7,1019.9
"2024-03-06 10:19:00",5.3,4.7,0.2,0.7,1019.9
"2024-03-06 10:20:00",5.4,4.8,0.2,0.7,1020.0
"2024-03-06 10:21:00",5.4,5.0,0.2,0.7,1019.9
"2024-03-06 10:22:00",5.4,5.0,0.2,0.6,1020.0
"2024-03-06 10:23:00",5.4,5.0,0.2,0.7,1020.0
"2024-03-06 10:24:00",5.4,5.0,0.2,0.7,1020.0
"2024-03-06 10:25:00",5.4,5.0,0.2,0.7,1020.0
"2024-03-06 10:26:00",5.4,4.8,0.2,0.7,1020.0
"2024-03-06 10:27:00",5.4,5.0,0.2,0.7,1020.0
"2024-03-06 10:28:00",5.4,5.0,0.2,0.7,1020.0
"2024-03-06 10:29:00",5.4,5.0,0.2,0.7,1020.1
"2024-03-06 10:30:00",5.5,5.1,0.2,0.7,1020.0
"2024-03-06 10:31:00",5.5,5.1,0.2,0.8,1020.0
"2024-03-06 10:32:00",5.6,5.0,0.2,0.8,1020.0
"2024-03-06 10:33:00",5.6,5.0,0.2,0.8,1020.0
"2024-03-06 10:34:00",5.6,5.0,0.2,0.8,1020.0
"2024-03-06 10:35:00",5.6,5.0,0.2,0.8,1020.1
"2024-03-06 10:36:00",5.6,5.0,0.2,0.8,1020.1
"2024-03-06 10:37:00",5.6,5.0,0.2,0.8,1020.1
"2024-03-06 10:38:00",5.7,5.1,0.2,0.7,1020.1
"2024-03-06 10:39:00",5.6,5.2,0.2,0.7,1020.1
"2024-03-06 10:40:00",5.5,4.9,0.2,0.7,1020.1
"2024-03-06 10:41:00",5.5,4.9,0.2,0.7,1020.1
"2024-03-06 10:42:00",5.5,4.9,0.2,0.7,1020.1
"2024-03-06 10:43:00",5.6,5.0,0.2,0.8,1020.1
"2024-03-06 10:44:00",5.6,5.0,0.2,0.8,1020.1
"2024-03-06 10:45:00",5.6,5.0,0.2,0.7,1020.0
"2024-03-06 10:46:00",5.7,5.1,0.2,0.7,1020.0
"2024-03-06 10:47:00",5.7,5.1,0.2,0.7,1020.0
"2024-03-06 10:48:00",5.7,5.1,0.2,0.7,1020.1
"2024-03-06 10:49:00",5.7,5.3,0.2,0.8,1020.1
"2024-03-06 10:50:00",5.7,5.3,0.2,0.8,1020.1
"2024-03-06 10:51:00",5.7,5.3,0.2,0.8,1020.1
"2024-03-06 10:52:00",5.7,5.3,0.2,0.9,1020.1
"2024-03-06 10:53:00",5.7,5.3,0.2,0.9,1020.1
"2024-03-06 10:54:00",5.7,5.3,0.2,0.9,1020.1
"2024-03-06 10:55:00",5.7,5.3,0.2,0.9,1020.1
"2024-03-06 10:56:00",5.8,5.4,0.2,0.9,1020.1
"2024-03-06 10:57:00",5.8,5.2,0.2,0.8,1020.1
"2024-03-06 10:58:00",5.9,5.5,0.2,0.8,1020.1
"2024-03-06 10:59:00",5.9,5.5,0.2,0.9,1020.1
"2024-03-06 11:00:00",6.0,5.6,0.2,0.9,1020.1
"2024-03-06 11:01:00",5.9,5.3,0.2,0.9,1020.1
"2024-03-06 11:02:00",5.8,5.2,0.2,0.9,1020.1
"2024-03-06 11:03:00",5.9,5.3,0.2,1.0,1020.1
"2024-03-06 11:04:00",5.9,5.3,0.2,1.0,1020.1
"2024-03-06 11:05:00",6.0,5.4,0.2,1.1,1020.1
"2024-03-06 11:06:00",6.1,5.7,0.2,1.1,1020.1
"2024-03-06 11:07:00",6.2,5.8,0.2,1.1,1020.1
"2024-03-06 11:08:00",6.2,5.8,0.2,1.1,1020.1
"2024-03-06 11:09:00",6.2,5.8,0.2,1.2,1020.1
"2024-03-06 11:10:00",6.4,6.0,0.2,1.1,1020.1
"2024-03-06 11:11:00",6.6,6.2,0.2,1.1,1020.1
"2024-03-06 11:12:00",6.6,6.2,0.2,1.1,1020.1
"2024-03-06 11:13:00",6.5,5.9,0.2,1.0,1020.1
"2024-03-06 11:14:00",6.4,5.8,0.2,1.0,1020.1
"2024-03-06 11:15:00",6.3,5.7,0.2,1.1,1020.1
"2024-03-06 11:16:00",6.3,5.7,0.2,1.2,1020.1
"2024-03-06 11:17:00",6.4,5.8,0.2,1.2,1020.1
"2024-03-06 11:18:00",6.4,5.8,0.2,1.2,1020.1
"2024-03-06 11:19:00",6.5,5.9,0.2,1.1,1020.2
"2024-03-06 11:20:00",6.4,5.8,0.2,1.1,1020.2
"2024-03-06 11:21:00",6.3,5.7,0.2,1.0,1020.2
"2024-03-06 11:22:00",6.3,5.7,0.2,1.0,1020.2
"2024-03-06 11:23:00",6.4,5.8,0.2,1.0,1020.2
"2024-03-06 11:24:00",6.4,5.8,0.2,1.0,1020.2
"2024-03-06 11:25:00",6.3,5.7,0.2,1.0,1020.2
"2024-03-06 11:26:00",6.3,5.7,0.2,1.0,1020.2
"2024-03-06 11:27:00",6.3,5.7,0.2,1.0,1020.2
"2024-03-06 11:28:00",6.4,5.8,0.2,1.1,1020.2
"2024-03-06 11:29:00",6.4,5.8,0.2,1.1,1020.2
"2024-03-06 11:30:00",6.3,5.7,0.2,1.0,1020.2
"2024-03-06 11:31:00",6.3,5.7,0.2,1.1,1020.2
"2024-03-06 11:32:00",6.4,5.8,0.2,1.1,1020.2
"2024-03-06 11:33:00",6.6,6.0,0.2,1.2,1020.2
"2024-03-06 11:34:00",6.8,6.2,0.2,1.2,1020.3
"2024-03-06 11:35:00",6.9,6.3,0.2,1.2,1020.2
"2024-03-06 11:36:00",6.9,6.3,0.2,1.2,1020.3
"2024-03-06 11:37:00",6.9,6.3,0.2,1.2,1020.3
"2024-03-06 11:38:00",7.0,6.4,0.2,1.3,1020.3
"2024-03-06 11:39:00",7.2,6.6,0.2,1.0,1020.3
"2024-03-06 11:40:00",7.3,6.7,0.2,1.0,1020.3
"2024-03-06 11:41:00",7.3,6.7,0.2,1.2,1020.3
"2024-03-06 11:42:00",7.2,6.6,0.2,1.3,1020.3
"2024-03-06 11:43:00",7.1,6.5,0.2,1.1,1020.3
"2024-03-06 11:44:00",7.2,6.6,0.2,1.2,1020.3
"2024-03-06 11:45:00",7.2,6.6,0.2,1.1,1020.3
"2024-03-06 11:46:00",7.3,6.7,0.2,1.0,1020.3
"2024-03-06 11:47:00",7.4,6.8,0.2,0.9,1020.3
"2024-03-06 11:48:00",7.4,6.8,0.2,0.9,1020.3
"2024-03-06 11:49:00",7.3,6.6,0.2,0.9,1020.3
"2024-03-06 11:50:00",7.3,6.6,0.2,0.9,1020.3
"2024-03-06 11:51:00",7.2,6.5,0.2,1.0,1020.3
"2024-03-06 11:52:00",7.2,6.5,0.2,1.0,1020.3
"2024-03-06 11:53:00",7.1,6.4,0.2,1.2,1020.3
"2024-03-06 11:54:00",7.2,6.5,0.2,1.2,1020.3
"2024-03-06 11:55:00",7.2,6.5,0.2,1.3,1020.3
"2024-03-06 11:56:00",7.2,6.5,0.2,1.3,1020.3